Weather Roundup
Issued by NWS Springfield, MO

Home | Current Version | Previous Version | Text Only | Print | Product List | Glossary On
Versions: 1 2 3 4 5 6 7 8 9 10 11 12 13 14 15 16 17 18 19 20 21 22 23 24 25 26 27 28 29 30 31 32 33 34 35 36 37 38 39 40 41 42 43 44 45 46 47 48 49 50
000
NZUS99 KSGF 291507
HRRSGF

HOURLY WEATHER
NATIONAL WEATHER SERVICE SPRINGFIELD MO
1000 AM CDT FRI AUG 29 2014

......SGF CWA......

CITY           SKY/WX    TMP DP  RH WIND       PRES   REMARKS
SPRINGFIELD    MOSUNNY   82  66  58 S15       29.93S
JOPLIN         CLOUDY    74  71  91 SW8       29.93R
WEST PLAINS    SUNNY     81  65  58 S10       30.00S
ROLLA          SUNNY     83  63  50 S10       29.95F
OSAGE BEACH    SUNNY     81  64  57 SE8       29.94S
BRANSON        MOSUNNY   84  66  54 S6        29.97S

......SURROUNDING SGF CWA......

CITY           SKY/WX    TMP DP  RH WIND       PRES   REMARKS
CHANUTE        RAIN      69  67  93 SW7       29.93R FOG
PARSONS        LGT RAIN  70  67  90 W7        29.93S FOG
COFFEYVILLE    CLOUDY    70  69  97 SW5       29.92R
EMPORIA        LGT RAIN  69  67  93 SW8       29.90R
GROVE OK       CLOUDY    77  72  83 SW6       29.94R
ROGERS AR      MOSUNNY   80  68  66 S8G16     29.97R
SILOAM SPRINGS MOSUNNY   79  66  65 SW13G22   29.97R
HARRISON AR    MOSUNNY   80  69  69 SW9       29.97F
NEAR YELLVILLE SUNNY     81  64  57 S3        29.96S

......KANSAS AND MISSOURI......

CITY           SKY/WX    TMP DP  RH WIND       PRES   REMARKS
KANSAS CTY INT PTSUNNY   80  67  64 SW10      29.88R
DOWNTOWN KC    MOSUNNY   82  67  60 SW10      29.86F
COLUMBIA       SUNNY     81  65  58 S13       29.93F
SEDALIA        SUNNY     83  67  58 S12       29.92S
ST JOSEPH      PTSUNNY   75  68  78 SW9       29.86R
ST LOUIS       MOSUNNY   85  72  65 SW10      29.97S HX  91
SPIRIT OF STL  MOSUNNY   81  72  74 S6        29.95S
KIRKSVILLE     SUNNY     79  68  69 S13       29.91F
WICHITA        PTSUNNY   73  64  73 SW8       29.90S
TOPEKA         LGT RAIN  73  68  84 SW9       29.89R
OLATHE         MOSUNNY   76  66  71 S9        29.88S

......TENNESSEE......

CITY           SKY/WX    TMP DP  RH WIND       PRES   REMARKS
MEMPHIS        MOSUNNY   86  68  54 W3        29.99S
NASHVILLE      MOSUNNY   86  64  47 S8        30.05S

......ARKANSAS.......

CITY           SKY/WX    TMP DP  RH WIND       PRES   REMARKS
FAYETTEVILLE   PTSUNNY   79  69  71 S14       29.96R
FT SMITH       MOSUNNY   86  70  58 W10       29.91S HX  90
LITTLE ROCK    PTSUNNY   79  70  74 S6        29.96F

......OKLAHOMA.......

CITY           SKY/WX    TMP DP  RH WIND       PRES   REMARKS
TULSA          PTSUNNY   78  67  68 W3        29.91R
PONCA CITY     PTSUNNY   73  65  75 SW9       29.93R
MCALESTER      CLOUDY    76  69  79 SW5       29.95R
OKLAHOMA CITY  PTSUNNY   74  66  76 SW8       29.95S

......IOWA............

CITY           SKY/WX    TMP DP  RH WIND       PRES   REMARKS
DES MOINES     MOSUNNY   78  70  76 S10       29.83F
QUAD CITIES    SUNNY     78  70  76 S9        29.91S

......ILLINOIS........

CITY           SKY/WX    TMP DP  RH WIND       PRES   REMARKS
QUINCY         SUNNY     80  70  71 S8        29.94S
CHICAGO        PTSUNNY   77  67  71 S10       29.99R



USA.gov is the U.S. government's official web portal to all federal, state and local government web resources and services.